AFR771 TFFR-LFPG

Flight info

Callsign AFR771
Flight time 8h 11m
Altitude 37000
Route CAIRN2F CAIRN DCT CITRS/M085F370 DCT 22N055W/M085F390 27N050W 35N045W 42N040W 47N030W 4930N02000W DCT SOMAX DCT ATSUR DCT GAPLI/N0480F390 DCT ANNET UM25 INGOR/N0498F280 UM25 LUKIP
Aircraft A359/H-SDE2E3GHIJ3J4J5LM1ORWXY/LB1D1

Departure

Time 2026-05-08 12:16
Airport Maryse Condé International Airport (TFFR)

Arrival

Time 2026-05-08 20:27
Airport Charles de Gaulle International Airport (LFPG)
Time Latitude Longitude Altitude Speed Heading
2026-05-08 11:56 16.26929 -61.52825 27 ft 0 kts 11°
2026-05-08 12:08 16.26911 -61.52828 27 ft 4 kts 11°
2026-05-08 12:08 16.26884 -61.52833 26 ft 4 kts 10°
2026-05-08 12:08 16.26861 -61.52837 25 ft 4 kts 356°
2026-05-08 12:08 16.26841 -61.52828 27 ft 4 kts 290°
2026-05-08 12:09 16.26836 -61.52803 24 ft 2 kts 281°
2026-05-08 12:09 16.26836 -61.52801 24 ft 0 kts 281°
2026-05-08 12:11 16.26842 -61.52834 25 ft 7 kts 280°
2026-05-08 12:11 16.26839 -61.52892 27 ft 10 kts 250°
2026-05-08 12:11 16.26761 -61.52941 27 ft 17 kts 198°
2026-05-08 12:11 16.26630 -61.52973 27 ft 21 kts 192°
2026-05-08 12:12 16.26514 -61.53042 30 ft 19 kts 259°
2026-05-08 12:12 16.26529 -61.53179 29 ft 20 kts 279°
2026-05-08 12:12 16.26552 -61.53327 26 ft 21 kts 281°
2026-05-08 12:12 16.26580 -61.53478 28 ft 21 kts 281°
2026-05-08 12:13 16.26608 -61.53624 30 ft 21 kts 282°
2026-05-08 12:13 16.26640 -61.53781 28 ft 24 kts 281°
2026-05-08 12:13 16.26673 -61.53954 28 ft 25 kts 281°
2026-05-08 12:13 16.26708 -61.54137 26 ft 27 kts 281°
2026-05-08 12:14 16.26737 -61.54310 21 ft 18 kts 268°
2026-05-08 12:14 16.26730 -61.54400 22 ft 3 kts 327°
2026-05-08 12:14 16.26741 -61.54393 24 ft 3 kts 42°
2026-05-08 12:14 16.26747 -61.54357 25 ft 6 kts 91°
2026-05-08 12:15 16.26740 -61.54312 21 ft 10 kts 100°
2026-05-08 12:15 16.26688 -61.54024 27 ft 71 kts 100°
2026-05-08 12:15 16.26555 -61.53321 25 ft 126 kts 101°
2026-05-08 12:15 16.26348 -61.52290 238 ft 151 kts 103°
2026-05-08 12:16 16.26092 -61.51256 754 ft 149 kts 103°
2026-05-08 12:16 16.25787 -61.50193 1180 ft 157 kts 104°
2026-05-08 12:16 16.25558 -61.49037 1448 ft 171 kts 95°
2026-05-08 12:16 16.25402 -61.47739 1692 ft 191 kts 94°
2026-05-08 12:17 16.25199 -61.46302 1986 ft 210 kts 95°
2026-05-08 12:17 16.24971 -61.44724 2262 ft 232 kts 94°
2026-05-08 12:17 16.25172 -61.43029 2766 ft 241 kts 69°
2026-05-08 12:17 16.26044 -61.41535 3465 ft 245 kts 53°
2026-05-08 12:18 16.27151 -61.40146 4096 ft 251 kts 51°
2026-05-08 12:18 16.28293 -61.38760 4786 ft 254 kts 50°
2026-05-08 12:18 16.29448 -61.37350 5437 ft 257 kts 51°
2026-05-08 12:18 16.30605 -61.35924 6158 ft 259 kts 51°
2026-05-08 12:19 16.31772 -61.34478 6789 ft 263 kts 51°
2026-05-08 12:19 16.32954 -61.33011 7497 ft 265 kts 50°
2026-05-08 12:19 16.34150 -61.31526 8150 ft 270 kts 50°
2026-05-08 12:19 16.35367 -61.30013 8815 ft 274 kts 49°
2026-05-08 12:20 16.36593 -61.28488 9555 ft 276 kts 49°
2026-05-08 12:20 16.37836 -61.26940 10162 ft 282 kts 49°
2026-05-08 12:20 16.39129 -61.25331 10504 ft 298 kts 49°
2026-05-08 12:20 16.40496 -61.23631 10767 ft 314 kts 49°
2026-05-08 12:21 16.41934 -61.21839 11028 ft 330 kts 49°
2026-05-08 12:21 16.43417 -61.19989 11289 ft 344 kts 49°
2026-05-08 12:21 16.44985 -61.18034 11513 ft 358 kts 49°
2026-05-08 12:21 16.46602 -61.16016 11838 ft 367 kts 49°
2026-05-08 12:22 16.48255 -61.13952 12254 ft 373 kts 49°
2026-05-08 12:22 16.49921 -61.11870 12773 ft 376 kts 49°
2026-05-08 12:22 16.51608 -61.09763 13219 ft 381 kts 49°
2026-05-08 12:22 16.53310 -61.07636 13744 ft 383 kts 49°
2026-05-08 12:23 16.55028 -61.05488 14128 ft 388 kts 49°
2026-05-08 12:23 16.56757 -61.03324 14627 ft 388 kts 49°
2026-05-08 12:23 16.58488 -61.01159 15112 ft 389 kts 49°
2026-05-08 12:23 16.60223 -60.98989 15597 ft 390 kts 49°
2026-05-08 12:24 16.61967 -60.96806 16011 ft 393 kts 49°
2026-05-08 12:24 16.63719 -60.94613 16464 ft 394 kts 49°
2026-05-08 12:24 16.65477 -60.92412 16917 ft 395 kts 49°
2026-05-08 12:24 16.67237 -60.90207 17386 ft 396 kts 49°
2026-05-08 12:25 16.69004 -60.87993 17814 ft 398 kts 48°
2026-05-08 12:25 16.70774 -60.85774 18243 ft 399 kts 48°
2026-05-08 12:25 16.72553 -60.83544 18619 ft 400 kts 48°
2026-05-08 12:25 16.74340 -60.81304 18962 ft 402 kts 48°
2026-05-08 12:26 16.76133 -60.79053 19326 ft 404 kts 48°
2026-05-08 12:26 16.77932 -60.76795 19673 ft 406 kts 48°
2026-05-08 12:26 16.79739 -60.74527 20051 ft 407 kts 48°
2026-05-08 12:26 16.81553 -60.72249 20429 ft 408 kts 48°
2026-05-08 12:27 16.83371 -60.69966 20845 ft 409 kts 48°
2026-05-08 12:27 16.85191 -60.67678 21257 ft 411 kts 48°
2026-05-08 12:27 16.87019 -60.65380 21659 ft 412 kts 48°
2026-05-08 12:27 16.88855 -60.63071 22053 ft 414 kts 48°
2026-05-08 12:28 16.90699 -60.60752 22450 ft 416 kts 48°
2026-05-08 12:28 16.92551 -60.58422 22849 ft 418 kts 48°
2026-05-08 12:28 16.94377 -60.56050 23259 ft 420 kts 50°
2026-05-08 12:28 16.96108 -60.53581 23667 ft 423 kts 52°
2026-05-08 12:29 16.97795 -60.51054 24003 ft 425 kts 53°
2026-05-08 12:29 16.99478 -60.48505 24327 ft 428 kts 53°
2026-05-08 12:29 17.01180 -60.45941 24676 ft 430 kts 52°
2026-05-08 12:29 17.02901 -60.43375 25028 ft 433 kts 52°
2026-05-08 12:30 17.04623 -60.40831 25380 ft 436 kts 52°
2026-05-08 12:30 17.06386 -60.38244 25752 ft 438 kts 52°
2026-05-08 12:30 17.08163 -60.35645 26159 ft 440 kts 52°
2026-05-08 12:30 17.09943 -60.33044 26630 ft 440 kts 52°
2026-05-08 12:31 17.11728 -60.30436 26983 ft 443 kts 52°
2026-05-08 12:31 17.13528 -60.27804 27343 ft 446 kts 52°
2026-05-08 12:31 17.15337 -60.25158 27715 ft 449 kts 52°
2026-05-08 12:31 17.17155 -60.22496 28080 ft 451 kts 52°
2026-05-08 12:32 17.18983 -60.19818 28440 ft 454 kts 52°
2026-05-08 12:32 17.20820 -60.17126 28802 ft 456 kts 52°
2026-05-08 12:32 17.22676 -60.14404 28948 ft 463 kts 52°
2026-05-08 12:32 17.23943 -60.12545 29117 ft 466 kts 52°
2026-05-08 12:33 17.26439 -60.08882 29569 ft 468 kts 53°
2026-05-08 12:33 17.28332 -60.06102 29899 ft 470 kts 53°
2026-05-08 12:33 17.29617 -60.04214 30086 ft 472 kts 53°
2026-05-08 12:33 17.31527 -60.01407 30324 ft 475 kts 53°
2026-05-08 12:34 17.33438 -59.98597 30722 ft 472 kts 52°
2026-05-08 12:34 17.35336 -59.95804 31161 ft 470 kts 52°
2026-05-08 12:34 17.37231 -59.93016 31425 ft 471 kts 52°
2026-05-08 12:34 17.39133 -59.90218 31691 ft 472 kts 52°
2026-05-08 12:35 17.41037 -59.87414 31949 ft 474 kts 52°
2026-05-08 12:35 17.42961 -59.84583 32002 ft 480 kts 52°
2026-05-08 12:35 17.44893 -59.81736 32289 ft 480 kts 52°
2026-05-08 12:35 17.46825 -59.78888 32629 ft 479 kts 52°
2026-05-08 12:36 17.48751 -59.76046 32919 ft 479 kts 52°
2026-05-08 12:36 17.50656 -59.73235 33198 ft 479 kts 52°
2026-05-08 12:36 17.52585 -59.70387 33467 ft 479 kts 52°
2026-05-08 12:36 17.54515 -59.67537 33745 ft 480 kts 52°
2026-05-08 12:37 17.56445 -59.64686 34044 ft 479 kts 52°
2026-05-08 12:37 17.58356 -59.61859 34556 ft 472 kts 52°
2026-05-08 12:37 17.60249 -59.59059 34830 ft 471 kts 52°
2026-05-08 12:37 17.62163 -59.56230 34741 ft 480 kts 52°
2026-05-08 12:38 17.64099 -59.53370 34879 ft 481 kts 52°
2026-05-08 12:38 17.66030 -59.50511 35169 ft 480 kts 52°
2026-05-08 12:38 17.67954 -59.47660 35418 ft 479 kts 52°
2026-05-08 12:38 17.69877 -59.44809 35635 ft 479 kts 52°
2026-05-08 12:39 17.71800 -59.41959 35830 ft 479 kts 52°
2026-05-08 12:39 17.73720 -59.39111 36057 ft 478 kts 52°
2026-05-08 12:39 17.75641 -59.36261 36254 ft 478 kts 52°
2026-05-08 12:39 17.77561 -59.33412 36442 ft 478 kts 52°
2026-05-08 12:40 17.79483 -59.30558 36601 ft 479 kts 52°
2026-05-08 12:40 17.81409 -59.27697 36771 ft 479 kts 52°
2026-05-08 12:40 17.83326 -59.24847 37027 ft 478 kts 52°
2026-05-08 12:40 17.85245 -59.21994 37067 ft 479 kts 52°
2026-05-08 12:41 17.89094 -59.16268 37072 ft 480 kts 52°
2026-05-08 12:41 17.92947 -59.10532 37054 ft 481 kts 52°
2026-05-08 12:42 17.96798 -59.04792 37056 ft 481 kts 52°
2026-05-08 12:42 18.00890 -58.99320 37063 ft 480 kts 42°
2026-05-08 12:43 18.05716 -58.94435 37063 ft 481 kts 41°
2026-05-08 12:43 18.10600 -58.89718 37061 ft 475 kts 40°
2026-05-08 12:44 18.15475 -58.85039 37058 ft 474 kts 40°
2026-05-08 12:44 18.20334 -58.80353 37067 ft 474 kts 40°
2026-05-08 12:45 18.25187 -58.75654 37064 ft 474 kts 40°
2026-05-08 12:45 18.30034 -58.70952 37066 ft 473 kts 40°
2026-05-08 12:46 18.34853 -58.66274 37064 ft 470 kts 40°
2026-05-08 12:46 18.39653 -58.61613 37065 ft 469 kts 40°
2026-05-08 12:47 18.44448 -58.56953 37067 ft 469 kts 40°
2026-05-08 12:47 18.49241 -58.52292 37067 ft 469 kts 40°
2026-05-08 12:48 18.54033 -58.47627 37071 ft 469 kts 40°
2026-05-08 12:48 18.58840 -58.42944 37068 ft 472 kts 40°
2026-05-08 12:49 18.63636 -58.38269 37064 ft 473 kts 40°
2026-05-08 12:49 18.68466 -58.33556 37064 ft 473 kts 40°
2026-05-08 12:50 18.73296 -58.28838 37067 ft 473 kts 40°
2026-05-08 12:50 18.78122 -58.24120 37072 ft 473 kts 40°
2026-05-08 12:51 18.85323 -58.17074 37073 ft 471 kts 40°
2026-05-08 12:52 18.90131 -58.12367 37070 ft 472 kts 40°
2026-05-08 12:52 18.97348 -58.05291 37072 ft 472 kts 40°
2026-05-08 12:53 19.02162 -58.00567 37072 ft 472 kts 40°
2026-05-08 12:53 19.06957 -57.95856 37067 ft 469 kts 40°
2026-05-08 12:54 19.11720 -57.91173 37070 ft 468 kts 40°
2026-05-08 12:54 19.16499 -57.86473 37071 ft 470 kts 40°
2026-05-08 12:55 19.21288 -57.81758 37072 ft 470 kts 40°
2026-05-08 12:55 19.26077 -57.77038 37070 ft 470 kts 40°
2026-05-08 12:56 19.30855 -57.72324 37070 ft 468 kts 41°
2026-05-08 12:56 19.35610 -57.67630 37074 ft 467 kts 41°
2026-05-08 12:57 19.40365 -57.62933 37073 ft 468 kts 41°
2026-05-08 12:57 19.45129 -57.58223 37072 ft 469 kts 41°
2026-05-08 12:58 19.49896 -57.53506 37074 ft 469 kts 41°
2026-05-08 12:58 19.54656 -57.48791 37073 ft 467 kts 41°
2026-05-08 12:59 19.59367 -57.44120 37073 ft 466 kts 41°
2026-05-08 12:59 19.64103 -57.39421 37075 ft 466 kts 41°
2026-05-08 13:00 19.68845 -57.34713 37075 ft 468 kts 41°
2026-05-08 13:00 19.73605 -57.29983 37074 ft 469 kts 41°
2026-05-08 13:01 19.78366 -57.25247 37074 ft 467 kts 41°
2026-05-08 13:01 19.83096 -57.20537 37081 ft 466 kts 41°
2026-05-08 13:02 19.87822 -57.15828 37077 ft 466 kts 41°
2026-05-08 13:02 19.92545 -57.11119 37070 ft 466 kts 41°
2026-05-08 13:03 19.97281 -57.06392 37075 ft 468 kts 41°
2026-05-08 13:03 20.02024 -57.01654 37074 ft 467 kts 41°
2026-05-08 13:04 20.06751 -56.96928 37075 ft 466 kts 41°
2026-05-08 13:04 20.11471 -56.92205 37075 ft 466 kts 41°
2026-05-08 13:05 20.16189 -56.87479 37075 ft 466 kts 41°
2026-05-08 13:05 20.20906 -56.82751 37078 ft 466 kts 41°
2026-05-08 13:06 20.25634 -56.78008 37075 ft 467 kts 41°
2026-05-08 13:06 20.30356 -56.73265 37075 ft 466 kts 41°
2026-05-08 13:07 20.35075 -56.68523 37075 ft 466 kts 41°
2026-05-08 13:07 20.39794 -56.63775 37075 ft 466 kts 41°
2026-05-08 13:08 20.44508 -56.59029 37080 ft 466 kts 41°
2026-05-08 13:08 20.49218 -56.54283 37081 ft 466 kts 41°
2026-05-08 13:09 20.53926 -56.49534 37081 ft 466 kts 41°
2026-05-08 13:09 20.58602 -56.44814 37080 ft 466 kts 41°
2026-05-08 13:10 20.63306 -56.40060 37083 ft 466 kts 41°
2026-05-08 13:10 20.68010 -56.35303 37080 ft 466 kts 41°
2026-05-08 13:11 20.72705 -56.30550 37088 ft 465 kts 41°
2026-05-08 13:11 20.77397 -56.25796 37080 ft 466 kts 41°
2026-05-08 13:12 20.82098 -56.21030 37081 ft 466 kts 41°
2026-05-08 13:12 20.86796 -56.16261 37083 ft 466 kts 41°
2026-05-08 13:13 20.91496 -56.11486 37083 ft 466 kts 41°
2026-05-08 13:13 20.96194 -56.06709 37083 ft 466 kts 41°
2026-05-08 13:14 21.00888 -56.01931 37083 ft 466 kts 41°
2026-05-08 13:14 21.05582 -55.97150 37083 ft 466 kts 41°
2026-05-08 13:15 21.10276 -55.92364 37086 ft 466 kts 41°
2026-05-08 13:15 21.14964 -55.87578 37085 ft 466 kts 41°
2026-05-08 13:16 21.19650 -55.82792 37083 ft 465 kts 41°
2026-05-08 13:16 21.24332 -55.78006 37092 ft 465 kts 41°
2026-05-08 13:17 21.28987 -55.73242 37086 ft 466 kts 41°
2026-05-08 13:17 21.33680 -55.68435 37086 ft 467 kts 41°
2026-05-08 13:18 21.38369 -55.63626 37083 ft 466 kts 41°
2026-05-08 13:18 21.43050 -55.58822 37083 ft 465 kts 41°
2026-05-08 13:19 21.47729 -55.54016 37086 ft 465 kts 41°
2026-05-08 13:19 21.52409 -55.49205 37089 ft 466 kts 41°
2026-05-08 13:20 21.57097 -55.44380 37085 ft 467 kts 41°
2026-05-08 13:20 21.61784 -55.39552 37083 ft 466 kts 41°
2026-05-08 13:21 21.65671 -55.35544 37087 ft 466 kts 41°
2026-05-08 13:21 21.70346 -55.30721 37088 ft 466 kts 41°
2026-05-08 13:22 21.75023 -55.25890 37090 ft 466 kts 41°
2026-05-08 13:22 21.79704 -55.21050 37089 ft 467 kts 41°
2026-05-08 13:23 21.84387 -55.16203 37086 ft 467 kts 41°
2026-05-08 13:23 21.89068 -55.11355 37086 ft 467 kts 41°
2026-05-08 13:24 21.93745 -55.06505 37086 ft 467 kts 41°
2026-05-08 13:24 21.98423 -55.01651 37120 ft 466 kts 41°
2026-05-08 13:25 22.00759 -54.99227 37305 ft 466 kts 41°
2026-05-08 13:25 22.03139 -54.96865 37508 ft 465 kts 39°
2026-05-08 13:25 22.05570 -54.94564 37674 ft 465 kts 38°
2026-05-08 13:25 22.08017 -54.92290 37848 ft 464 kts 38°
2026-05-08 13:26 22.10465 -54.90019 38010 ft 464 kts 38°
2026-05-08 13:26 22.12910 -54.87737 38170 ft 465 kts 38°
2026-05-08 13:26 22.15346 -54.85447 38318 ft 465 kts 38°
2026-05-08 13:26 22.17777 -54.83148 38459 ft 465 kts 38°
2026-05-08 13:27 22.20205 -54.80844 38597 ft 465 kts 38°
2026-05-08 13:27 22.22633 -54.78533 38725 ft 465 kts 39°
2026-05-08 13:27 22.25060 -54.76223 38837 ft 465 kts 39°
2026-05-08 13:27 22.27486 -54.73910 38940 ft 466 kts 39°
2026-05-08 13:28 22.32322 -54.69301 39083 ft 468 kts 39°
2026-05-08 13:28 22.37215 -54.64634 39091 ft 470 kts 39°
2026-05-08 13:29 22.42113 -54.59958 39088 ft 470 kts 39°
2026-05-08 13:29 22.47008 -54.55280 39093 ft 470 kts 39°
2026-05-08 13:30 22.51903 -54.50598 39095 ft 470 kts 39°
2026-05-08 13:30 22.56804 -54.45906 39094 ft 471 kts 39°
2026-05-08 13:31 22.61710 -54.41205 39091 ft 471 kts 39°
2026-05-08 13:31 22.66617 -54.36496 39097 ft 471 kts 39°
2026-05-08 13:32 22.71525 -54.31783 39090 ft 472 kts 39°
2026-05-08 13:32 22.76431 -54.27067 39090 ft 472 kts 39°
2026-05-08 13:33 22.81340 -54.22344 39092 ft 472 kts 39°
2026-05-08 13:33 22.86256 -54.17609 39097 ft 473 kts 39°
2026-05-08 13:34 22.91169 -54.12872 39094 ft 473 kts 39°
2026-05-08 13:34 22.96083 -54.08129 39096 ft 473 kts 39°
2026-05-08 13:35 23.00992 -54.03386 39094 ft 473 kts 39°
2026-05-08 13:35 23.05867 -53.98672 39100 ft 473 kts 39°
2026-05-08 13:36 23.10784 -53.93912 39097 ft 474 kts 39°
2026-05-08 13:36 23.15707 -53.89141 39099 ft 474 kts 39°
2026-05-08 13:37 23.20630 -53.84365 39097 ft 474 kts 39°
2026-05-08 13:37 23.25553 -53.79585 39097 ft 474 kts 39°
2026-05-08 13:38 23.30473 -53.74802 39100 ft 474 kts 39°
2026-05-08 13:38 23.35395 -53.70013 39097 ft 475 kts 39°
2026-05-08 13:39 23.40323 -53.65212 39097 ft 476 kts 39°
2026-05-08 13:39 23.45250 -53.60408 39101 ft 476 kts 39°
2026-05-08 13:40 23.50179 -53.55596 39103 ft 475 kts 39°
2026-05-08 13:40 23.55100 -53.50787 39099 ft 475 kts 39°
2026-05-08 13:41 23.60016 -53.45979 39102 ft 475 kts 39°
2026-05-08 13:41 23.64933 -53.41165 39102 ft 475 kts 39°
2026-05-08 13:42 23.69847 -53.36347 39107 ft 475 kts 39°
2026-05-08 13:42 23.74743 -53.31542 39100 ft 473 kts 39°
2026-05-08 13:43 23.79628 -53.26744 39102 ft 472 kts 39°
2026-05-08 13:43 23.84480 -53.21974 39103 ft 474 kts 39°
2026-05-08 13:44 23.89387 -53.17144 39111 ft 475 kts 39°
2026-05-08 13:44 23.94282 -53.12319 39100 ft 473 kts 39°
2026-05-08 13:45 23.99164 -53.07503 39108 ft 472 kts 39°
2026-05-08 13:45 24.04038 -53.02690 39108 ft 472 kts 39°
2026-05-08 13:46 24.08917 -52.97867 39105 ft 474 kts 39°
2026-05-08 13:46 24.13804 -52.93031 39114 ft 472 kts 39°
2026-05-08 13:47 24.18670 -52.88209 39098 ft 471 kts 39°
2026-05-08 13:47 24.23531 -52.83388 39097 ft 471 kts 39°
2026-05-08 13:48 24.28390 -52.78564 39113 ft 471 kts 39°
2026-05-08 13:48 24.33208 -52.73774 39111 ft 470 kts 38°
2026-05-08 13:49 24.38059 -52.68949 39108 ft 471 kts 38°
2026-05-08 13:49 24.42913 -52.64115 39108 ft 471 kts 38°
2026-05-08 13:50 24.47764 -52.59277 39110 ft 471 kts 39°
2026-05-08 13:50 24.52605 -52.54443 39110 ft 469 kts 38°
2026-05-08 13:51 24.57426 -52.49625 39109 ft 469 kts 38°
2026-05-08 13:51 24.62264 -52.44788 39108 ft 471 kts 38°
2026-05-08 13:52 24.67105 -52.39941 39113 ft 471 kts 38°
2026-05-08 13:52 24.71936 -52.35094 39113 ft 469 kts 38°
2026-05-08 13:53 24.76747 -52.30264 39110 ft 468 kts 38°
2026-05-08 13:53 24.81558 -52.25432 39110 ft 469 kts 38°
2026-05-08 13:54 24.86388 -52.20574 39113 ft 471 kts 38°
2026-05-08 13:54 24.91211 -52.15717 39116 ft 469 kts 38°
2026-05-08 13:55 24.96014 -52.10874 39116 ft 468 kts 38°
2026-05-08 13:56 25.03211 -52.03609 39118 ft 468 kts 38°
2026-05-08 13:56 25.08026 -51.98743 39116 ft 471 kts 38°
2026-05-08 13:57 25.12858 -51.93853 39116 ft 471 kts 38°
2026-05-08 13:57 25.17690 -51.88956 39116 ft 471 kts 38°
2026-05-08 13:58 25.22517 -51.84059 39116 ft 471 kts 39°
2026-05-08 13:58 25.27342 -51.79158 39120 ft 470 kts 38°
2026-05-08 13:59 25.32158 -51.74262 39115 ft 471 kts 38°
2026-05-08 13:59 25.36975 -51.69360 39116 ft 471 kts 38°
2026-05-08 14:00 25.41791 -51.64453 39121 ft 471 kts 38°
2026-05-08 14:00 25.46598 -51.59548 39118 ft 468 kts 38°
2026-05-08 14:01 25.51372 -51.54671 39122 ft 468 kts 38°
2026-05-08 14:01 25.56170 -51.49770 39122 ft 470 kts 38°
2026-05-08 14:02 25.60946 -51.44882 39119 ft 471 kts 38°
2026-05-08 14:02 25.65741 -51.39965 39122 ft 468 kts 38°
2026-05-08 14:03 25.70506 -51.35075 39121 ft 466 kts 38°
2026-05-08 14:03 25.75265 -51.30188 39122 ft 467 kts 38°
2026-05-08 14:04 25.80038 -51.25283 39126 ft 468 kts 38°
2026-05-08 14:04 25.84803 -51.20375 39128 ft 466 kts 38°
2026-05-08 14:05 25.89547 -51.15485 39126 ft 465 kts 38°
2026-05-08 14:05 25.94289 -51.10593 39127 ft 465 kts 38°
2026-05-08 14:06 25.99027 -51.05699 39139 ft 465 kts 38°
2026-05-08 14:06 26.03750 -51.00813 39126 ft 463 kts 38°
2026-05-08 14:07 26.08464 -50.95932 39131 ft 463 kts 38°
2026-05-08 14:07 26.13177 -50.91047 39133 ft 463 kts 38°
2026-05-08 14:08 26.17887 -50.86160 39145 ft 463 kts 38°
2026-05-08 14:08 26.22597 -50.81266 39132 ft 463 kts 38°
2026-05-08 14:09 26.27307 -50.76367 39132 ft 463 kts 38°
2026-05-08 14:09 26.31217 -50.72295 39132 ft 463 kts 38°
2026-05-08 14:10 26.35921 -50.67391 39139 ft 463 kts 38°
2026-05-08 14:10 26.41376 -50.61696 39134 ft 463 kts 38°
2026-05-08 14:11 26.45317 -50.57580 39135 ft 463 kts 38°
2026-05-08 14:11 26.50022 -50.52658 39135 ft 463 kts 38°
2026-05-08 14:12 26.54722 -50.47735 39136 ft 463 kts 38°
2026-05-08 14:12 26.59415 -50.42813 39134 ft 463 kts 38°
2026-05-08 14:13 26.64116 -50.37880 39133 ft 466 kts 38°
2026-05-08 14:13 26.68848 -50.32908 39134 ft 467 kts 38°
2026-05-08 14:14 26.73576 -50.27930 39136 ft 466 kts 38°
2026-05-08 14:14 26.78256 -50.22998 39138 ft 465 kts 38°
2026-05-08 14:15 26.82968 -50.18028 39130 ft 466 kts 38°
2026-05-08 14:15 26.87714 -50.13020 39134 ft 472 kts 39°
2026-05-08 14:16 26.92503 -50.07957 39130 ft 474 kts 39°
2026-05-08 14:16 26.97295 -50.02888 39134 ft 473 kts 38°
2026-05-08 14:17 27.02568 -49.98635 39143 ft 464 kts 25°
2026-05-08 14:17 27.08261 -49.95225 39139 ft 465 kts 23°
2026-05-08 14:18 27.14071 -49.91931 39133 ft 471 kts 23°
2026-05-08 14:18 27.19956 -49.88604 39135 ft 474 kts 23°
2026-05-08 14:19 27.25837 -49.85248 39139 ft 474 kts 23°
2026-05-08 14:19 27.31701 -49.81885 39141 ft 472 kts 23°
2026-05-08 14:20 27.37550 -49.78527 39141 ft 472 kts 23°
2026-05-08 14:20 27.43402 -49.75163 39156 ft 472 kts 24°
2026-05-08 14:21 27.49260 -49.71794 39145 ft 475 kts 24°
2026-05-08 14:21 27.55165 -49.68394 39138 ft 478 kts 24°
2026-05-08 14:22 27.61084 -49.64980 39145 ft 478 kts 24°
2026-05-08 14:22 27.66997 -49.61565 39145 ft 477 kts 24°
2026-05-08 14:23 27.72906 -49.58148 39143 ft 477 kts 24°
2026-05-08 14:23 27.78776 -49.54750 39151 ft 477 kts 24°
2026-05-08 14:24 27.84687 -49.51325 39142 ft 478 kts 24°
2026-05-08 14:24 27.90638 -49.47874 39147 ft 484 kts 25°
2026-05-08 14:25 27.96625 -49.44395 39153 ft 484 kts 25°
2026-05-08 14:25 28.02610 -49.40912 39150 ft 483 kts 25°
2026-05-08 14:26 28.08578 -49.37435 39151 ft 482 kts 25°
2026-05-08 14:26 28.14545 -49.33955 39150 ft 482 kts 25°
2026-05-08 14:27 28.20505 -49.30476 39150 ft 482 kts 25°
2026-05-08 14:27 28.26485 -49.26980 39149 ft 485 kts 25°
2026-05-08 14:28 28.32495 -49.23462 39150 ft 486 kts 25°
2026-05-08 14:28 28.38508 -49.19937 39154 ft 486 kts 25°
2026-05-08 14:29 28.44520 -49.16408 39148 ft 486 kts 25°
2026-05-08 14:29 28.50533 -49.12874 39151 ft 486 kts 25°
2026-05-08 14:30 28.56544 -49.09337 39160 ft 486 kts 25°
2026-05-08 14:30 28.62551 -49.05798 39154 ft 488 kts 26°
2026-05-08 14:31 28.68591 -49.02235 39153 ft 490 kts 26°
2026-05-08 14:31 28.74646 -48.98658 39151 ft 490 kts 26°
2026-05-08 14:32 28.83721 -48.93288 39151 ft 490 kts 26°
2026-05-08 14:32 28.89771 -48.89702 39151 ft 490 kts 26°
2026-05-08 14:33 28.95817 -48.86114 39148 ft 489 kts 26°
2026-05-08 14:33 29.01811 -48.82553 39153 ft 489 kts 26°
2026-05-08 14:34 29.07841 -48.78965 39156 ft 489 kts 26°
2026-05-08 14:34 29.13865 -48.75374 39157 ft 487 kts 26°
2026-05-08 14:35 29.19864 -48.71795 39159 ft 486 kts 26°
2026-05-08 14:35 29.25865 -48.68212 39160 ft 486 kts 26°
2026-05-08 14:36 29.31856 -48.64628 39155 ft 485 kts 25°
2026-05-08 14:36 29.37872 -48.61025 39161 ft 491 kts 26°
2026-05-08 14:37 29.43939 -48.57384 39160 ft 492 kts 26°
2026-05-08 14:37 29.50000 -48.53743 39162 ft 491 kts 26°
2026-05-08 14:38 29.56045 -48.50107 39162 ft 490 kts 26°
2026-05-08 14:38 29.62085 -48.46470 39162 ft 490 kts 26°
2026-05-08 14:39 29.68123 -48.42830 39160 ft 490 kts 26°
2026-05-08 14:39 29.74184 -48.39170 39166 ft 494 kts 26°
2026-05-08 14:40 29.80279 -48.35484 39164 ft 495 kts 26°
2026-05-08 14:40 29.86366 -48.31796 39165 ft 494 kts 26°
2026-05-08 14:41 29.92449 -48.28108 39165 ft 494 kts 26°
2026-05-08 14:41 29.98481 -48.24444 39171 ft 493 kts 26°
2026-05-08 14:42 30.04583 -48.20734 39165 ft 492 kts 26°
2026-05-08 14:42 30.10625 -48.17056 39168 ft 495 kts 26°
2026-05-08 14:43 30.16759 -48.13315 39172 ft 495 kts 26°
2026-05-08 14:43 30.22832 -48.09605 39170 ft 493 kts 26°
2026-05-08 14:44 30.28849 -48.05925 39170 ft 492 kts 26°
2026-05-08 14:44 30.34901 -48.02219 39173 ft 492 kts 26°
2026-05-08 14:45 30.40939 -47.98517 39173 ft 492 kts 26°
2026-05-08 14:45 30.46991 -47.94801 39175 ft 492 kts 26°
2026-05-08 14:46 30.53046 -47.91076 39175 ft 493 kts 26°
2026-05-08 14:46 30.59097 -47.87350 39178 ft 493 kts 26°
2026-05-08 14:47 30.65152 -47.83615 39178 ft 493 kts 26°
2026-05-08 14:47 30.71189 -47.79886 39175 ft 490 kts 27°
2026-05-08 14:48 30.77214 -47.76160 39178 ft 491 kts 26°
2026-05-08 14:48 30.83249 -47.72422 39176 ft 492 kts 26°
2026-05-08 14:49 30.89263 -47.68692 39180 ft 488 kts 27°
2026-05-08 14:49 30.95241 -47.64977 39182 ft 487 kts 27°
2026-05-08 14:50 31.01208 -47.61265 39186 ft 486 kts 27°
2026-05-08 14:50 31.07151 -47.57563 39182 ft 484 kts 27°
2026-05-08 14:51 31.13109 -47.53848 39184 ft 486 kts 26°
2026-05-08 14:51 31.19080 -47.50118 39184 ft 487 kts 27°
2026-05-08 14:52 31.27986 -47.44545 39183 ft 486 kts 27°
2026-05-08 14:53 31.33948 -47.40806 39186 ft 486 kts 27°
2026-05-08 14:53 31.39914 -47.37059 39187 ft 488 kts 26°
2026-05-08 14:54 31.45906 -47.33291 39189 ft 489 kts 27°
2026-05-08 14:54 31.51902 -47.29515 39192 ft 489 kts 27°
2026-05-08 14:55 31.57897 -47.25735 39191 ft 489 kts 27°
2026-05-08 14:55 31.63890 -47.21951 39192 ft 489 kts 27°
2026-05-08 14:56 31.69882 -47.18161 39192 ft 489 kts 27°
2026-05-08 14:56 31.75877 -47.14362 39192 ft 490 kts 27°
2026-05-08 14:57 31.80866 -47.11197 39195 ft 491 kts 27°
2026-05-08 14:57 31.86869 -47.07385 39195 ft 490 kts 27°
2026-05-08 14:58 31.92866 -47.03570 39194 ft 490 kts 27°
2026-05-08 14:58 31.98868 -46.99747 39196 ft 490 kts 28°
2026-05-08 14:59 32.04863 -46.95922 39190 ft 490 kts 28°
2026-05-08 14:59 32.13877 -46.90158 39194 ft 491 kts 28°
2026-05-08 15:00 32.19890 -46.86307 39197 ft 492 kts 28°
2026-05-08 15:00 32.25905 -46.82449 39198 ft 492 kts 28°
2026-05-08 15:01 32.31923 -46.78585 39195 ft 492 kts 28°
2026-05-08 15:01 32.37943 -46.74713 39195 ft 493 kts 28°
2026-05-08 15:02 32.43972 -46.70827 39198 ft 493 kts 28°
2026-05-08 15:02 32.49998 -46.66938 39196 ft 494 kts 28°
2026-05-08 15:03 32.56033 -46.63036 39201 ft 494 kts 28°
2026-05-08 15:03 32.62067 -46.59130 39201 ft 494 kts 28°
2026-05-08 15:04 32.68070 -46.55239 39201 ft 496 kts 28°
2026-05-08 15:04 32.74140 -46.51299 39204 ft 498 kts 28°
2026-05-08 15:05 32.80219 -46.47345 39205 ft 498 kts 28°
2026-05-08 15:05 32.86300 -46.43383 39207 ft 499 kts 28°
2026-05-08 15:06 32.92384 -46.39412 39206 ft 499 kts 28°
2026-05-08 15:06 32.98460 -46.35441 39207 ft 498 kts 28°
2026-05-08 15:07 33.04556 -46.31453 39207 ft 500 kts 28°
2026-05-08 15:07 33.10650 -46.27459 39207 ft 499 kts 28°
2026-05-08 15:08 33.15709 -46.24137 39210 ft 499 kts 28°
2026-05-08 15:08 33.22824 -46.19458 39211 ft 499 kts 28°
2026-05-08 15:09 33.28904 -46.15452 39208 ft 499 kts 28°
2026-05-08 15:09 33.35004 -46.11427 39213 ft 501 kts 28°
2026-05-08 15:10 33.41105 -46.07398 39213 ft 500 kts 28°
2026-05-08 15:10 33.47198 -46.03365 39214 ft 500 kts 28°
2026-05-08 15:11 33.53286 -45.99327 39218 ft 500 kts 28°
2026-05-08 15:11 33.59363 -45.95292 39217 ft 499 kts 28°
2026-05-08 15:12 33.65453 -45.91240 39220 ft 501 kts 28°
2026-05-08 15:12 33.71513 -45.87203 39219 ft 501 kts 28°
2026-05-08 15:13 33.77608 -45.83137 39223 ft 501 kts 28°
2026-05-08 15:13 33.83698 -45.79069 39221 ft 500 kts 28°
2026-05-08 15:14 33.89777 -45.74999 39224 ft 500 kts 28°
2026-05-08 15:14 33.95866 -45.70916 39226 ft 501 kts 28°
2026-05-08 15:15 34.01948 -45.66830 39226 ft 500 kts 28°
2026-05-08 15:15 34.08024 -45.62742 39227 ft 500 kts 28°
2026-05-08 15:16 34.14087 -45.58655 39229 ft 498 kts 28°
2026-05-08 15:16 34.20137 -45.54571 39232 ft 499 kts 28°
2026-05-08 15:17 34.26201 -45.50471 39237 ft 498 kts 28°
2026-05-08 15:17 34.32238 -45.46382 39234 ft 496 kts 27°
2026-05-08 15:18 34.38263 -45.42295 39240 ft 497 kts 28°
2026-05-08 15:18 34.44276 -45.38208 39237 ft 494 kts 28°
2026-05-08 15:19 34.50283 -45.34120 39237 ft 497 kts 28°
2026-05-08 15:19 34.56299 -45.30017 39241 ft 494 kts 28°
2026-05-08 15:20 34.62285 -45.25927 39240 ft 493 kts 28°
2026-05-08 15:20 34.68266 -45.21837 39245 ft 492 kts 27°
2026-05-08 15:21 34.74225 -45.17757 39244 ft 492 kts 28°
2026-05-08 15:21 34.80205 -45.13651 39250 ft 494 kts 27°
2026-05-08 15:22 34.86147 -45.09563 39250 ft 494 kts 28°
2026-05-08 15:22 34.92121 -45.05447 39251 ft 493 kts 28°
2026-05-08 15:23 34.98084 -45.01335 39252 ft 491 kts 28°
2026-05-08 15:23 35.04058 -44.97290 39253 ft 491 kts 26°
2026-05-08 15:24 35.10108 -44.93445 39253 ft 490 kts 25°
2026-05-08 15:24 35.16167 -44.89614 39257 ft 490 kts 25°
2026-05-08 15:25 35.22212 -44.85747 39260 ft 490 kts 25°
2026-05-08 15:25 35.28245 -44.81859 39262 ft 490 kts 26°
2026-05-08 15:26 35.34279 -44.77960 39263 ft 491 kts 26°
2026-05-08 15:26 35.40321 -44.74050 39265 ft 491 kts 26°
2026-05-08 15:27 35.46360 -44.70136 39269 ft 491 kts 26°
2026-05-08 15:27 35.52398 -44.66217 39269 ft 492 kts 26°
2026-05-08 15:28 35.58451 -44.62280 39273 ft 493 kts 26°
2026-05-08 15:28 35.64508 -44.58334 39275 ft 493 kts 26°
2026-05-08 15:29 35.70570 -44.54378 39276 ft 493 kts 26°
2026-05-08 15:29 35.76631 -44.50415 39284 ft 493 kts 26°
2026-05-08 15:30 35.82700 -44.46441 39282 ft 495 kts 26°
2026-05-08 15:30 35.88779 -44.42453 39281 ft 495 kts 26°
2026-05-08 15:31 35.94855 -44.38460 39282 ft 495 kts 26°
2026-05-08 15:31 36.00928 -44.34462 39282 ft 494 kts 26°
2026-05-08 15:32 36.06996 -44.30460 39281 ft 495 kts 26°
2026-05-08 15:32 36.13075 -44.26445 39287 ft 496 kts 26°
2026-05-08 15:33 36.19159 -44.22418 39294 ft 495 kts 26°
2026-05-08 15:33 36.25225 -44.18395 39285 ft 495 kts 26°
2026-05-08 15:34 36.31292 -44.14367 39287 ft 495 kts 26°
2026-05-08 15:34 36.37362 -44.10328 39289 ft 495 kts 26°
2026-05-08 15:35 36.43394 -44.06308 39288 ft 496 kts 26°
2026-05-08 15:35 36.49459 -44.02258 39291 ft 494 kts 26°
2026-05-08 15:36 36.54533 -43.98864 39288 ft 494 kts 26°
2026-05-08 15:36 36.61558 -43.94157 39289 ft 494 kts 26°
2026-05-08 15:37 36.67606 -43.90097 39294 ft 494 kts 25°
2026-05-08 15:37 36.73651 -43.86032 39292 ft 493 kts 26°
2026-05-08 15:38 36.79668 -43.81977 39295 ft 491 kts 25°
2026-05-08 15:38 36.85680 -43.77920 39295 ft 492 kts 25°
2026-05-08 15:39 36.91701 -43.73850 39295 ft 492 kts 26°
2026-05-08 15:39 36.97726 -43.69768 39307 ft 493 kts 25°
2026-05-08 15:40 37.03748 -43.65682 39297 ft 491 kts 26°
2026-05-08 15:40 37.09739 -43.61608 39304 ft 490 kts 25°
2026-05-08 15:41 37.15744 -43.57519 39306 ft 492 kts 25°
2026-05-08 15:41 37.21756 -43.53417 39307 ft 492 kts 26°
2026-05-08 15:42 37.27776 -43.49302 39302 ft 494 kts 26°
2026-05-08 15:42 37.33784 -43.45186 39302 ft 490 kts 26°
2026-05-08 15:43 37.38756 -43.41775 39324 ft 490 kts 25°
2026-05-08 15:43 37.45710 -43.36996 39313 ft 490 kts 25°
2026-05-08 15:44 37.51693 -43.32877 39318 ft 490 kts 26°
2026-05-08 15:44 37.56704 -43.29421 39322 ft 490 kts 26°
2026-05-08 15:45 37.62621 -43.25332 39318 ft 487 kts 26°
2026-05-08 15:45 37.68556 -43.21223 39331 ft 486 kts 25°
2026-05-08 15:46 37.74493 -43.17107 39323 ft 488 kts 26°
2026-05-08 15:46 37.80442 -43.12974 39325 ft 488 kts 26°
2026-05-08 15:47 37.86389 -43.08834 39334 ft 488 kts 25°
2026-05-08 15:47 37.92350 -43.04677 39332 ft 489 kts 25°
2026-05-08 15:48 38.01293 -42.98427 39330 ft 489 kts 26°
2026-05-08 15:49 38.07251 -42.94252 39333 ft 489 kts 26°
2026-05-08 15:49 38.13205 -42.90073 39334 ft 488 kts 26°
2026-05-08 15:50 38.19121 -42.85912 39331 ft 485 kts 26°
2026-05-08 15:50 38.25015 -42.81759 39331 ft 484 kts 26°
2026-05-08 15:51 38.30905 -42.77601 39334 ft 484 kts 26°
2026-05-08 15:51 38.36808 -42.73428 39337 ft 486 kts 26°
2026-05-08 15:52 38.42725 -42.69236 39337 ft 486 kts 26°
2026-05-08 15:52 38.48598 -42.65064 39325 ft 481 kts 26°
2026-05-08 15:53 38.54436 -42.60912 39344 ft 480 kts 26°
2026-05-08 15:53 38.60270 -42.56755 39338 ft 480 kts 26°
2026-05-08 15:54 38.66073 -42.52613 39335 ft 482 kts 26°
2026-05-08 15:54 38.71943 -42.48417 39337 ft 484 kts 26°
2026-05-08 15:55 38.77783 -42.44229 39335 ft 478 kts 27°
2026-05-08 15:55 38.86472 -42.37988 39341 ft 478 kts 27°
2026-05-08 15:56 38.92273 -42.33813 39341 ft 478 kts 27°
2026-05-08 15:56 38.98074 -42.29629 39343 ft 479 kts 27°
2026-05-08 15:57 39.03881 -42.25432 39345 ft 478 kts 27°
2026-05-08 15:57 39.09642 -42.21259 39340 ft 474 kts 27°
2026-05-08 15:58 39.15406 -42.17078 39343 ft 474 kts 27°
2026-05-08 15:58 39.21120 -42.12926 39344 ft 475 kts 27°
2026-05-08 15:59 39.26871 -42.08738 39351 ft 475 kts 27°
2026-05-08 15:59 39.32629 -42.04537 39344 ft 476 kts 27°
2026-05-08 16:00 39.38380 -42.00333 39347 ft 474 kts 27°
2026-05-08 16:00 39.44115 -41.96133 39354 ft 474 kts 28°
2026-05-08 16:01 39.49846 -41.91927 39346 ft 473 kts 28°
2026-05-08 16:01 39.55578 -41.87714 39344 ft 473 kts 28°
2026-05-08 16:02 39.61305 -41.83495 39346 ft 474 kts 28°
2026-05-08 16:02 39.67024 -41.79274 39344 ft 472 kts 28°
2026-05-08 16:03 39.72727 -41.75057 39345 ft 472 kts 28°
2026-05-08 16:03 39.78428 -41.70833 39345 ft 472 kts 28°
2026-05-08 16:04 39.84128 -41.66603 39346 ft 472 kts 28°
2026-05-08 16:04 39.89830 -41.62362 39346 ft 472 kts 28°
2026-05-08 16:05 39.95532 -41.58113 39344 ft 472 kts 28°
2026-05-08 16:05 40.01238 -41.53852 39350 ft 472 kts 28°
2026-05-08 16:06 40.06940 -41.49587 39348 ft 472 kts 28°
2026-05-08 16:06 40.12641 -41.45314 39352 ft 473 kts 28°
2026-05-08 16:07 40.18318 -41.41052 39352 ft 474 kts 28°
2026-05-08 16:07 40.24073 -41.36721 39352 ft 474 kts 28°
2026-05-08 16:08 40.29745 -41.32444 39353 ft 474 kts 28°
2026-05-08 16:08 40.35458 -41.28128 39352 ft 474 kts 28°
2026-05-08 16:09 40.40241 -41.24509 39352 ft 474 kts 28°
2026-05-08 16:09 40.46878 -41.19476 39355 ft 474 kts 28°
2026-05-08 16:10 40.52593 -41.15134 39354 ft 474 kts 28°
2026-05-08 16:10 40.58305 -41.10784 39354 ft 474 kts 28°
2026-05-08 16:11 40.64002 -41.06436 39356 ft 473 kts 28°
2026-05-08 16:11 40.69699 -41.02082 39354 ft 473 kts 28°
2026-05-08 16:12 40.75392 -40.97721 39357 ft 473 kts 28°
2026-05-08 16:12 40.81083 -40.93353 39359 ft 472 kts 27°
2026-05-08 16:13 40.86750 -40.88994 39357 ft 471 kts 28°
2026-05-08 16:13 40.92410 -40.84633 39357 ft 471 kts 28°
2026-05-08 16:14 40.98063 -40.80267 39357 ft 470 kts 27°
2026-05-08 16:14 41.03712 -40.75897 39359 ft 470 kts 27°
2026-05-08 16:15 41.09353 -40.71524 39357 ft 470 kts 27°
2026-05-08 16:15 41.14997 -40.67139 39360 ft 470 kts 27°
2026-05-08 16:16 41.20597 -40.62780 39356 ft 470 kts 27°
2026-05-08 16:16 41.26233 -40.58384 39357 ft 470 kts 28°
2026-05-08 16:17 41.30951 -40.54698 39357 ft 470 kts 28°
2026-05-08 16:17 41.37494 -40.49574 39357 ft 470 kts 28°
2026-05-08 16:18 41.43124 -40.45157 39357 ft 470 kts 28°
2026-05-08 16:18 41.48752 -40.40732 39382 ft 470 kts 28°
2026-05-08 16:19 41.54369 -40.36306 39348 ft 469 kts 28°
2026-05-08 16:19 41.59976 -40.31879 39357 ft 468 kts 28°
2026-05-08 16:20 41.65571 -40.27452 39355 ft 467 kts 28°
2026-05-08 16:20 41.71166 -40.23017 39351 ft 467 kts 28°
2026-05-08 16:21 41.76753 -40.18579 39355 ft 467 kts 28°
2026-05-08 16:21 41.82342 -40.14130 39354 ft 467 kts 28°
2026-05-08 16:22 41.87929 -40.09674 39346 ft 467 kts 28°
2026-05-08 16:22 41.93506 -40.05217 39354 ft 466 kts 28°
2026-05-08 16:23 41.98942 -40.00468 39354 ft 468 kts 37°
2026-05-08 16:23 42.03481 -39.94146 39357 ft 472 kts 47°
2026-05-08 16:24 42.07608 -39.87257 39352 ft 473 kts 49°
2026-05-08 16:24 42.11661 -39.80274 39353 ft 473 kts 49°
2026-05-08 16:25 42.15721 -39.73287 39363 ft 473 kts 49°
2026-05-08 16:25 42.19761 -39.66362 39359 ft 473 kts 49°
2026-05-08 16:26 42.23827 -39.59390 39353 ft 473 kts 49°
2026-05-08 16:26 42.27892 -39.52406 39366 ft 473 kts 49°
2026-05-08 16:27 42.31942 -39.45430 39351 ft 471 kts 50°
2026-05-08 16:27 42.35980 -39.38457 39351 ft 471 kts 50°
2026-05-08 16:28 42.40012 -39.31479 39353 ft 471 kts 50°
2026-05-08 16:28 42.44042 -39.24488 39353 ft 471 kts 50°
2026-05-08 16:29 42.48062 -39.17497 39350 ft 470 kts 50°
2026-05-08 16:29 42.52071 -39.10508 39351 ft 469 kts 50°
2026-05-08 16:30 42.56069 -39.03524 39355 ft 468 kts 50°
2026-05-08 16:30 42.60051 -38.96550 39352 ft 467 kts 50°
2026-05-08 16:31 42.64029 -38.89567 39352 ft 467 kts 50°
2026-05-08 16:31 42.67333 -38.83755 39351 ft 467 kts 50°
2026-05-08 16:32 42.71301 -38.76761 39350 ft 467 kts 50°
2026-05-08 16:32 42.75261 -38.69763 39354 ft 467 kts 50°
2026-05-08 16:33 42.79215 -38.62760 39354 ft 467 kts 50°
2026-05-08 16:33 42.83164 -38.55750 39356 ft 467 kts 50°
2026-05-08 16:34 42.87111 -38.48725 39354 ft 467 kts 50°
2026-05-08 16:34 42.91049 -38.41700 39356 ft 467 kts 50°
2026-05-08 16:35 42.94987 -38.34660 39355 ft 467 kts 50°
2026-05-08 16:35 42.98914 -38.27619 39356 ft 465 kts 50°
2026-05-08 16:36 43.02832 -38.20581 39356 ft 465 kts 50°
2026-05-08 16:36 43.06742 -38.13539 39364 ft 465 kts 50°
2026-05-08 16:37 43.10650 -38.06485 39365 ft 465 kts 50°
2026-05-08 16:37 43.14549 -37.99430 39359 ft 465 kts 51°
2026-05-08 16:38 43.18445 -37.92364 39363 ft 465 kts 51°
2026-05-08 16:38 43.22339 -37.85283 39366 ft 465 kts 50°
2026-05-08 16:39 43.26195 -37.78255 39368 ft 464 kts 50°
2026-05-08 16:39 43.30067 -37.71182 39368 ft 463 kts 50°
2026-05-08 16:40 43.33959 -37.64055 39365 ft 463 kts 50°
2026-05-08 16:40 43.37823 -37.56961 39367 ft 464 kts 50°
2026-05-08 16:41 43.41659 -37.49904 39367 ft 464 kts 50°
2026-05-08 16:42 43.47443 -37.39230 39362 ft 464 kts 50°
2026-05-08 16:42 43.51295 -37.32099 39361 ft 465 kts 50°
2026-05-08 16:43 43.55151 -37.24943 39367 ft 465 kts 50°
2026-05-08 16:43 43.59003 -37.17777 39362 ft 465 kts 50°
2026-05-08 16:44 43.62854 -37.10596 39371 ft 465 kts 50°
2026-05-08 16:44 43.66704 -37.03398 39363 ft 466 kts 50°
2026-05-08 16:45 43.70554 -36.96183 39360 ft 467 kts 50°
2026-05-08 16:45 43.74399 -36.88959 39361 ft 466 kts 50°
2026-05-08 16:46 43.78241 -36.81724 39358 ft 467 kts 50°
2026-05-08 16:46 43.82091 -36.74456 39357 ft 468 kts 50°
2026-05-08 16:47 43.85935 -36.67180 39358 ft 468 kts 50°
2026-05-08 16:47 43.89776 -36.59892 39361 ft 468 kts 50°
2026-05-08 16:48 43.93593 -36.52632 39362 ft 469 kts 50°
2026-05-08 16:48 43.97435 -36.45306 39360 ft 469 kts 50°
2026-05-08 16:49 44.01271 -36.37973 39357 ft 469 kts 50°
2026-05-08 16:49 44.05100 -36.30634 39361 ft 468 kts 50°
2026-05-08 16:50 44.08917 -36.23300 39352 ft 468 kts 50°
2026-05-08 16:50 44.12726 -36.15964 39354 ft 468 kts 50°
2026-05-08 16:51 44.16532 -36.08615 39357 ft 468 kts 50°
2026-05-08 16:51 44.20334 -36.01255 39354 ft 468 kts 50°
2026-05-08 16:52 44.24130 -35.93888 39352 ft 468 kts 50°
2026-05-08 16:52 44.27922 -35.86508 39355 ft 468 kts 50°
2026-05-08 16:53 44.33586 -35.75449 39352 ft 465 kts 50°
2026-05-08 16:53 44.37340 -35.68098 39352 ft 464 kts 50°
2026-05-08 16:54 44.41085 -35.60747 39349 ft 464 kts 50°
2026-05-08 16:54 44.44825 -35.53386 39353 ft 463 kts 49°
2026-05-08 16:55 44.48546 -35.46041 39353 ft 462 kts 50°
2026-05-08 16:55 44.52257 -35.38703 39353 ft 462 kts 50°
2026-05-08 16:56 44.55963 -35.31354 39353 ft 461 kts 50°
2026-05-08 16:56 44.59655 -35.24012 39347 ft 459 kts 49°
2026-05-08 16:57 44.63323 -35.16697 39349 ft 457 kts 49°
2026-05-08 16:57 44.66980 -35.09392 39349 ft 457 kts 49°
2026-05-08 16:58 44.70606 -35.02128 39368 ft 457 kts 49°
2026-05-08 16:58 44.74246 -34.94814 39346 ft 456 kts 49°
2026-05-08 16:59 44.77878 -34.87503 39346 ft 455 kts 49°
2026-05-08 16:59 44.81493 -34.80203 39345 ft 453 kts 49°
2026-05-08 17:00 44.85079 -34.72942 39361 ft 451 kts 49°
2026-05-08 17:00 44.88661 -34.65677 39350 ft 451 kts 49°
2026-05-08 17:01 44.92239 -34.58402 39346 ft 451 kts 49°
2026-05-08 17:01 44.95814 -34.51113 39346 ft 452 kts 49°
2026-05-08 17:02 44.99386 -34.43812 39351 ft 453 kts 49°
2026-05-08 17:02 45.02968 -34.36471 39347 ft 454 kts 49°
2026-05-08 17:03 45.06550 -34.29109 39347 ft 454 kts 49°
2026-05-08 17:03 45.10126 -34.21738 39347 ft 454 kts 49°
2026-05-08 17:04 45.13701 -34.14354 39346 ft 455 kts 49°
2026-05-08 17:04 45.17279 -34.06945 39346 ft 456 kts 49°
2026-05-08 17:05 45.20855 -33.99520 39345 ft 456 kts 49°
2026-05-08 17:05 45.24425 -33.92086 39374 ft 456 kts 49°
2026-05-08 17:06 45.28000 -33.84628 39348 ft 457 kts 49°
2026-05-08 17:06 45.31573 -33.77151 39346 ft 458 kts 49°
2026-05-08 17:07 45.35142 -33.69659 39346 ft 458 kts 49°
2026-05-08 17:07 45.38707 -33.62160 39373 ft 458 kts 50°
2026-05-08 17:08 45.42249 -33.54691 39346 ft 459 kts 50°
2026-05-08 17:08 45.45814 -33.47152 39346 ft 459 kts 50°
2026-05-08 17:09 45.49374 -33.39600 39346 ft 459 kts 50°
2026-05-08 17:09 45.52929 -33.32042 39346 ft 459 kts 50°
2026-05-08 17:10 45.56480 -33.24471 39344 ft 459 kts 50°
2026-05-08 17:10 45.60020 -33.16903 39344 ft 458 kts 50°
2026-05-08 17:11 45.63550 -33.09336 39344 ft 457 kts 50°
2026-05-08 17:11 45.67074 -33.01766 39343 ft 457 kts 50°
2026-05-08 17:12 45.70594 -32.94181 39340 ft 458 kts 50°
2026-05-08 17:12 45.74110 -32.86585 39348 ft 458 kts 50°
2026-05-08 17:13 45.77621 -32.78978 39344 ft 458 kts 50°
2026-05-08 17:13 45.81128 -32.71359 39349 ft 458 kts 50°
2026-05-08 17:14 45.84632 -32.63728 39345 ft 458 kts 50°
2026-05-08 17:14 45.88129 -32.56089 39339 ft 458 kts 50°
2026-05-08 17:15 45.91620 -32.48444 39342 ft 458 kts 50°
2026-05-08 17:15 45.95085 -32.40835 39337 ft 458 kts 51°
2026-05-08 17:16 45.98566 -32.33172 39337 ft 458 kts 51°
2026-05-08 17:16 46.02043 -32.25493 39338 ft 458 kts 51°
2026-05-08 17:17 46.05516 -32.17805 39372 ft 458 kts 51°
2026-05-08 17:17 46.08987 -32.10100 39340 ft 459 kts 51°
2026-05-08 17:18 46.12453 -32.02383 39339 ft 459 kts 51°
2026-05-08 17:18 46.15914 -31.94656 39336 ft 459 kts 51°
2026-05-08 17:19 46.19371 -31.86918 39355 ft 459 kts 51°
2026-05-08 17:19 46.22827 -31.79162 39339 ft 460 kts 51°
2026-05-08 17:20 46.25697 -31.72703 39330 ft 460 kts 51°
2026-05-08 17:20 46.29144 -31.64924 39331 ft 460 kts 51°
2026-05-08 17:21 46.32589 -31.57130 39360 ft 460 kts 51°
2026-05-08 17:21 46.36030 -31.49323 39334 ft 460 kts 51°
2026-05-08 17:22 46.39462 -31.41514 39334 ft 460 kts 51°
2026-05-08 17:22 46.40618 -31.38877 39329 ft 460 kts 51°
2026-05-08 17:25 46.43872 -31.31447 39329 ft 460 kts 51°
2026-05-08 17:25 46.47292 -31.23616 39333 ft 460 kts 51°
2026-05-08 17:26 46.50715 -31.15759 39327 ft 461 kts 51°
2026-05-08 17:26 46.54135 -31.07884 39325 ft 461 kts 51°
2026-05-08 17:27 46.57551 -30.99993 39325 ft 461 kts 51°
2026-05-08 17:27 46.60962 -30.92094 39330 ft 462 kts 52°
2026-05-08 17:28 46.64378 -30.84159 39324 ft 463 kts 52°
2026-05-08 17:28 46.67791 -30.76210 39328 ft 463 kts 52°
2026-05-08 17:29 46.71198 -30.68249 39328 ft 463 kts 52°
2026-05-08 17:29 46.74601 -30.60277 39329 ft 463 kts 52°
2026-05-08 17:30 46.78002 -30.52285 39325 ft 464 kts 52°
2026-05-08 17:30 46.81398 -30.44282 39325 ft 464 kts 52°
2026-05-08 17:31 46.84791 -30.36263 39322 ft 464 kts 52°
2026-05-08 17:31 46.88177 -30.28237 39322 ft 464 kts 52°
2026-05-08 17:32 46.91560 -30.20195 39317 ft 464 kts 52°
2026-05-08 17:32 46.94912 -30.12204 39317 ft 464 kts 52°
2026-05-08 17:33 46.98307 -30.04088 39325 ft 464 kts 52°
2026-05-08 17:33 47.01306 -29.95727 39325 ft 469 kts 59°
2026-05-08 17:34 47.04025 -29.87010 39320 ft 471 kts 60°
2026-05-08 17:34 47.06689 -29.78241 39320 ft 471 kts 60°
2026-05-08 17:35 47.09346 -29.69459 39320 ft 471 kts 60°
2026-05-08 17:35 47.12005 -29.60675 39318 ft 471 kts 60°
2026-05-08 17:36 47.14661 -29.51884 39319 ft 471 kts 60°
2026-05-08 17:36 47.17308 -29.43090 39314 ft 471 kts 60°
2026-05-08 17:37 47.19951 -29.34283 39317 ft 471 kts 60°
2026-05-08 17:37 47.22588 -29.25462 39318 ft 471 kts 60°
2026-05-08 17:38 47.25216 -29.16637 39310 ft 471 kts 60°
2026-05-08 17:38 47.27836 -29.07806 39311 ft 471 kts 60°
2026-05-08 17:39 47.30449 -28.98970 39309 ft 471 kts 61°
2026-05-08 17:39 47.33057 -28.90120 39312 ft 470 kts 61°
2026-05-08 17:40 47.35654 -28.81273 39301 ft 470 kts 61°
2026-05-08 17:40 47.38246 -28.72415 39301 ft 470 kts 61°
2026-05-08 17:41 47.40830 -28.63549 39298 ft 470 kts 61°
2026-05-08 17:41 47.43409 -28.54670 39306 ft 470 kts 62°
2026-05-08 17:42 47.45980 -28.45784 39300 ft 470 kts 62°
2026-05-08 17:42 47.48544 -28.36890 39286 ft 470 kts 62°
2026-05-08 17:43 47.51103 -28.27981 39281 ft 470 kts 62°
2026-05-08 17:43 47.53654 -28.19070 39296 ft 471 kts 62°
2026-05-08 17:44 47.56203 -28.10130 39288 ft 471 kts 62°
2026-05-08 17:44 47.58727 -28.01244 39276 ft 471 kts 62°
2026-05-08 17:45 47.61263 -27.92286 39283 ft 471 kts 62°
2026-05-08 17:45 47.63792 -27.83315 39278 ft 472 kts 62°
2026-05-08 17:46 47.66324 -27.74308 39276 ft 473 kts 62°
2026-05-08 17:46 47.68848 -27.65286 39270 ft 474 kts 62°
2026-05-08 17:47 47.71368 -27.56249 39268 ft 474 kts 62°
2026-05-08 17:47 47.73472 -27.48675 39279 ft 474 kts 62°
2026-05-08 17:48 47.76396 -27.38114 39260 ft 476 kts 62°
2026-05-08 17:48 47.78907 -27.29007 39254 ft 476 kts 62°
2026-05-08 17:49 47.81412 -27.19880 39254 ft 476 kts 62°
2026-05-08 17:49 47.83910 -27.10748 39255 ft 477 kts 62°
2026-05-08 17:50 47.86409 -27.01581 39249 ft 478 kts 63°
2026-05-08 17:50 47.88901 -26.92400 39246 ft 478 kts 63°
2026-05-08 17:51 47.91387 -26.83203 39238 ft 478 kts 63°
2026-05-08 17:51 47.93866 -26.74000 39240 ft 478 kts 63°
2026-05-08 17:52 47.96338 -26.64784 39232 ft 478 kts 63°
2026-05-08 17:53 48.00016 -26.51003 39231 ft 479 kts 63°
2026-05-08 17:53 48.02470 -26.41765 39233 ft 479 kts 63°
2026-05-08 17:54 48.04919 -26.32512 39227 ft 479 kts 63°
2026-05-08 17:54 48.07362 -26.23240 39222 ft 479 kts 63°
2026-05-08 17:55 48.09798 -26.13955 39222 ft 480 kts 63°
2026-05-08 17:55 48.12226 -26.04668 39216 ft 480 kts 63°
2026-05-08 17:56 48.14650 -25.95359 39209 ft 480 kts 64°
2026-05-08 17:56 48.16658 -25.87617 39205 ft 480 kts 64°
2026-05-08 17:57 48.19070 -25.78283 39197 ft 480 kts 64°
2026-05-08 17:57 48.21473 -25.68947 39210 ft 480 kts 64°
2026-05-08 17:58 48.23870 -25.59598 39208 ft 480 kts 64°
2026-05-08 17:58 48.26259 -25.50237 39200 ft 480 kts 64°
2026-05-08 17:59 48.28640 -25.40871 39192 ft 481 kts 64°
2026-05-08 17:59 48.31016 -25.31486 39181 ft 481 kts 65°
2026-05-08 18:00 48.33384 -25.22095 39193 ft 481 kts 65°
2026-05-08 18:00 48.36924 -25.07980 39184 ft 481 kts 65°
2026-05-08 18:01 48.39275 -24.98557 39178 ft 481 kts 65°
2026-05-08 18:01 48.41618 -24.89128 39175 ft 481 kts 65°
2026-05-08 18:02 48.43954 -24.79688 39172 ft 481 kts 65°
2026-05-08 18:02 48.46281 -24.70241 39164 ft 481 kts 65°
2026-05-08 18:03 48.48601 -24.60783 39160 ft 481 kts 65°
2026-05-08 18:03 48.50913 -24.51320 39155 ft 481 kts 65°
2026-05-08 18:04 48.53216 -24.41854 39146 ft 481 kts 65°
2026-05-08 18:04 48.55510 -24.32378 39148 ft 480 kts 66°
2026-05-08 18:05 48.57795 -24.22899 39144 ft 480 kts 65°
2026-05-08 18:05 48.60059 -24.13479 39142 ft 480 kts 66°
2026-05-08 18:06 48.62330 -24.03983 39135 ft 481 kts 65°
2026-05-08 18:06 48.64590 -23.94477 39128 ft 481 kts 66°
2026-05-08 18:07 48.66845 -23.84962 39127 ft 481 kts 66°
2026-05-08 18:07 48.69092 -23.75441 39120 ft 481 kts 67°
2026-05-08 18:08 48.71333 -23.65903 39125 ft 480 kts 66°
2026-05-08 18:08 48.73563 -23.56372 39111 ft 480 kts 67°
2026-05-08 18:09 48.75782 -23.46836 39100 ft 479 kts 68°
2026-05-08 18:09 48.77995 -23.37289 39101 ft 480 kts 68°
2026-05-08 18:10 48.80201 -23.27739 39098 ft 480 kts 66°
2026-05-08 18:10 48.82401 -23.18173 39092 ft 481 kts 68°
2026-05-08 18:11 48.84596 -23.08582 39090 ft 482 kts 67°
2026-05-08 18:11 48.86780 -22.98983 39079 ft 481 kts 67°
2026-05-08 18:12 48.88961 -22.89369 39081 ft 481 kts 67°
2026-05-08 18:12 48.91130 -22.79746 39073 ft 481 kts 68°
2026-05-08 18:13 48.93290 -22.70124 39075 ft 480 kts 67°
2026-05-08 18:13 48.95441 -22.60506 39073 ft 480 kts 68°
2026-05-08 18:14 48.97587 -22.50872 39065 ft 481 kts 68°
2026-05-08 18:14 48.99730 -22.41206 39064 ft 483 kts 69°
2026-05-08 18:15 49.01873 -22.31503 39061 ft 484 kts 68°
2026-05-08 18:15 49.04006 -22.21782 39063 ft 483 kts 68°
2026-05-08 18:16 49.06129 -22.12062 39068 ft 484 kts 69°
2026-05-08 18:16 49.08247 -22.02321 39046 ft 485 kts 69°
2026-05-08 18:17 49.10359 -21.92559 39048 ft 484 kts 69°
2026-05-08 18:17 49.12463 -21.82792 39042 ft 485 kts 69°
2026-05-08 18:18 49.14563 -21.73011 39043 ft 485 kts 70°
2026-05-08 18:18 49.16641 -21.63275 39040 ft 486 kts 70°
2026-05-08 18:19 49.18728 -21.53452 39037 ft 486 kts 70°
2026-05-08 18:19 49.20806 -21.43613 39036 ft 486 kts 70°
2026-05-08 18:20 49.22875 -21.33769 39038 ft 486 kts 71°
2026-05-08 18:20 49.24936 -21.23917 39040 ft 487 kts 71°
2026-05-08 18:21 49.26994 -21.14028 39036 ft 488 kts 70°
2026-05-08 18:21 49.29045 -21.04134 39037 ft 488 kts 71°
2026-05-08 18:22 49.31088 -20.94222 39037 ft 488 kts 71°
2026-05-08 18:22 49.33127 -20.84292 39041 ft 489 kts 71°
2026-05-08 18:23 49.35158 -20.74340 39040 ft 490 kts 71°
2026-05-08 18:23 49.37183 -20.64366 39043 ft 490 kts 72°
2026-05-08 18:24 49.39199 -20.54391 39044 ft 489 kts 72°
2026-05-08 18:24 49.41208 -20.44401 39045 ft 490 kts 72°
2026-05-08 18:25 49.43210 -20.34392 39048 ft 491 kts 72°
2026-05-08 18:25 49.45206 -20.24364 39047 ft 491 kts 72°
2026-05-08 18:26 49.47192 -20.14331 39050 ft 491 kts 72°
2026-05-08 18:26 49.49172 -20.04280 39053 ft 491 kts 73°
2026-05-08 18:27 49.50502 -19.95797 39056 ft 491 kts 78°
2026-05-08 18:27 49.52021 -19.83721 39056 ft 492 kts 79°
2026-05-08 18:28 49.53259 -19.73367 39056 ft 492 kts 79°
2026-05-08 18:28 49.54489 -19.63007 39054 ft 492 kts 79°
2026-05-08 18:29 49.55716 -19.52656 39059 ft 491 kts 79°
2026-05-08 18:29 49.56936 -19.42308 39059 ft 491 kts 79°
2026-05-08 18:30 49.58146 -19.31962 39061 ft 491 kts 80°
2026-05-08 18:30 49.59347 -19.21610 39062 ft 491 kts 80°
2026-05-08 18:31 49.60540 -19.11247 39062 ft 491 kts 80°
2026-05-08 18:31 49.61715 -19.00944 39061 ft 491 kts 80°
2026-05-08 18:32 49.62889 -18.90563 39062 ft 491 kts 80°
2026-05-08 18:32 49.64054 -18.80183 39062 ft 491 kts 80°
2026-05-08 18:33 49.65210 -18.69793 39061 ft 491 kts 80°
2026-05-08 18:33 49.66356 -18.59406 39062 ft 491 kts 81°
2026-05-08 18:34 49.67493 -18.49010 39062 ft 491 kts 81°
2026-05-08 18:34 49.68620 -18.38609 39061 ft 491 kts 81°
2026-05-08 18:35 49.69738 -18.28205 39064 ft 491 kts 81°
2026-05-08 18:35 49.70848 -18.17791 39056 ft 491 kts 81°
2026-05-08 18:36 49.71947 -18.07374 39057 ft 491 kts 81°
2026-05-08 18:36 49.73039 -17.96944 39056 ft 491 kts 81°
2026-05-08 18:37 49.74120 -17.86512 39054 ft 491 kts 82°
2026-05-08 18:37 49.75192 -17.76083 39059 ft 491 kts 82°
2026-05-08 18:38 49.76254 -17.65652 39058 ft 491 kts 82°
2026-05-08 18:38 49.77300 -17.55273 39061 ft 491 kts 82°
2026-05-08 18:39 49.78344 -17.44824 39058 ft 491 kts 82°
2026-05-08 18:39 49.79380 -17.34367 39059 ft 492 kts 82°
2026-05-08 18:40 49.80405 -17.23906 39063 ft 492 kts 82°
2026-05-08 18:40 49.81422 -17.13437 39062 ft 492 kts 82°
2026-05-08 18:41 49.82428 -17.02974 39057 ft 491 kts 82°
2026-05-08 18:41 49.83425 -16.92501 39060 ft 492 kts 82°
2026-05-08 18:42 49.84415 -16.82009 39058 ft 492 kts 83°
2026-05-08 18:42 49.85237 -16.73210 39058 ft 492 kts 83°
2026-05-08 18:43 49.86202 -16.62779 39057 ft 492 kts 83°
2026-05-08 18:43 49.87164 -16.52273 39050 ft 492 kts 83°
2026-05-08 18:44 49.88116 -16.41767 39054 ft 492 kts 83°
2026-05-08 18:44 49.89060 -16.31252 39052 ft 492 kts 83°
2026-05-08 18:45 49.89994 -16.20733 39050 ft 492 kts 84°
2026-05-08 18:45 49.90918 -16.10214 39049 ft 492 kts 84°
2026-05-08 18:46 49.91835 -15.99687 39049 ft 492 kts 85°
2026-05-08 18:46 49.92740 -15.89152 39051 ft 492 kts 84°
2026-05-08 18:47 49.93635 -15.78617 39050 ft 492 kts 85°
2026-05-08 18:47 49.94520 -15.68075 39051 ft 492 kts 85°
2026-05-08 18:48 49.95399 -15.57524 39051 ft 494 kts 85°
2026-05-08 18:48 49.96269 -15.46933 39052 ft 495 kts 85°
2026-05-08 18:49 49.97132 -15.36317 39049 ft 495 kts 85°
2026-05-08 18:49 49.97986 -15.25702 39052 ft 495 kts 84°
2026-05-08 18:50 49.98831 -15.15074 39047 ft 496 kts 85°
2026-05-08 18:50 49.99667 -15.04431 39052 ft 497 kts 85°
2026-05-08 18:51 50.00030 -14.93750 39045 ft 494 kts 91°
2026-05-08 18:51 50.00096 -14.83068 39046 ft 494 kts 91°
2026-05-08 18:52 50.00107 -14.72457 39034 ft 494 kts 92°
2026-05-08 18:52 50.00112 -14.61814 39042 ft 491 kts 92°
2026-05-08 18:53 50.00115 -14.51222 39040 ft 490 kts 93°
2026-05-08 18:53 50.00111 -14.40638 39040 ft 490 kts 93°
2026-05-08 18:54 50.00097 -14.30059 39043 ft 490 kts 92°
2026-05-08 18:54 50.00075 -14.19479 39045 ft 489 kts 93°
2026-05-08 18:55 50.00023 -14.03619 39036 ft 489 kts 93°
2026-05-08 18:56 50.00061 -13.93050 39039 ft 490 kts 90°
2026-05-08 18:56 50.00361 -13.82477 39035 ft 490 kts 90°
2026-05-08 18:57 50.00678 -13.71890 39029 ft 491 kts 90°
2026-05-08 18:57 50.00945 -13.61285 39036 ft 491 kts 90°
2026-05-08 18:58 50.01181 -13.50665 39035 ft 491 kts 90°
2026-05-08 18:58 50.01400 -13.40054 39033 ft 491 kts 90°
2026-05-08 18:59 50.01613 -13.29441 39022 ft 491 kts 91°
2026-05-08 18:59 50.01818 -13.18873 39031 ft 493 kts 91°
2026-05-08 19:00 50.02014 -13.08226 39027 ft 493 kts 91°
2026-05-08 19:00 50.02200 -12.97571 39030 ft 493 kts 90°
2026-05-08 19:01 50.02376 -12.86915 39031 ft 493 kts 91°
2026-05-08 19:01 50.02542 -12.76243 39028 ft 494 kts 91°
2026-05-08 19:02 50.02699 -12.65547 39030 ft 495 kts 91°
2026-05-08 19:02 50.02846 -12.54855 39028 ft 495 kts 91°
2026-05-08 19:03 50.02983 -12.44164 39025 ft 495 kts 91°
2026-05-08 19:03 50.03111 -12.33478 39021 ft 493 kts 92°
2026-05-08 19:04 50.03229 -12.22845 39020 ft 491 kts 92°
2026-05-08 19:04 50.03336 -12.12222 39021 ft 491 kts 92°
2026-05-08 19:05 50.03433 -12.01607 39021 ft 491 kts 92°
2026-05-08 19:05 50.03520 -11.90994 39009 ft 491 kts 92°
2026-05-08 19:06 50.03598 -11.80326 39027 ft 495 kts 91°
2026-05-08 19:06 50.03668 -11.69606 39021 ft 496 kts 92°
2026-05-08 19:07 50.03727 -11.58872 39022 ft 496 kts 92°
2026-05-08 19:07 50.03777 -11.48132 39029 ft 496 kts 92°
2026-05-08 19:08 50.03817 -11.37407 39015 ft 496 kts 92°
2026-05-08 19:08 50.03846 -11.26685 39017 ft 496 kts 92°
2026-05-08 19:09 50.03866 -11.15966 39017 ft 495 kts 92°
2026-05-08 19:09 50.03875 -11.05252 39023 ft 495 kts 92°
2026-05-08 19:10 50.03877 -10.94619 39016 ft 493 kts 94°
2026-05-08 19:10 50.03868 -10.83984 39028 ft 491 kts 94°
2026-05-08 19:11 50.03847 -10.73378 39026 ft 490 kts 94°
2026-05-08 19:11 50.03817 -10.62773 39031 ft 490 kts 94°
2026-05-08 19:12 50.03778 -10.52174 39017 ft 490 kts 94°
2026-05-08 19:12 50.03731 -10.41594 39018 ft 489 kts 94°
2026-05-08 19:13 50.03673 -10.31033 39018 ft 488 kts 95°
2026-05-08 19:13 50.03605 -10.20477 39018 ft 488 kts 95°
2026-05-08 19:14 50.03528 -10.09925 39021 ft 488 kts 95°
2026-05-08 19:14 50.03440 -9.99362 39020 ft 489 kts 95°
2026-05-08 19:15 50.03344 -9.88778 39021 ft 490 kts 95°
2026-05-08 19:15 50.03238 -9.78192 39020 ft 489 kts 95°
2026-05-08 19:16 50.03123 -9.67608 39025 ft 489 kts 95°
2026-05-08 19:16 50.02997 -9.57030 39023 ft 489 kts 95°
2026-05-08 19:17 50.02864 -9.46529 39016 ft 488 kts 95°
2026-05-08 19:17 50.02720 -9.35986 39018 ft 487 kts 95°
2026-05-08 19:18 50.02567 -9.25453 39020 ft 487 kts 95°
2026-05-08 19:18 50.02404 -9.14917 39009 ft 487 kts 95°
2026-05-08 19:19 50.02231 -9.04384 39016 ft 488 kts 95°
2026-05-08 19:19 50.02050 -8.93847 39016 ft 488 kts 95°
2026-05-08 19:20 50.01858 -8.83303 39019 ft 488 kts 95°
2026-05-08 19:20 50.01657 -8.72772 39021 ft 488 kts 95°
2026-05-08 19:21 50.01447 -8.62243 39021 ft 486 kts 96°
2026-05-08 19:21 50.01229 -8.51750 39018 ft 485 kts 96°
2026-05-08 19:22 50.01000 -8.41266 39017 ft 485 kts 96°
2026-05-08 19:22 50.00761 -8.30789 39020 ft 485 kts 96°
2026-05-08 19:23 50.00514 -8.20319 39013 ft 485 kts 96°
2026-05-08 19:23 50.00260 -8.09881 39020 ft 482 kts 96°
2026-05-08 19:24 49.99996 -7.99488 39022 ft 481 kts 96°
2026-05-08 19:24 49.99440 -7.89172 39023 ft 478 kts 101°
2026-05-08 19:25 49.98611 -7.78927 39023 ft 478 kts 101°
2026-05-08 19:25 49.97805 -7.68739 39017 ft 479 kts 101°
2026-05-08 19:26 49.97038 -7.58464 39017 ft 479 kts 101°
2026-05-08 19:26 49.96284 -7.48175 39018 ft 479 kts 101°
2026-05-08 19:27 49.95523 -7.37899 39014 ft 479 kts 100°
2026-05-08 19:27 49.94754 -7.27658 39016 ft 477 kts 100°
2026-05-08 19:28 49.93973 -7.17423 39018 ft 477 kts 101°
2026-05-08 19:28 49.93183 -7.07189 39019 ft 477 kts 101°
2026-05-08 19:29 49.92384 -6.96960 39020 ft 477 kts 101°
2026-05-08 19:29 49.91577 -6.86736 39020 ft 477 kts 101°
2026-05-08 19:30 49.90760 -6.76514 39014 ft 478 kts 101°
2026-05-08 19:30 49.90073 -6.68005 39023 ft 478 kts 101°
2026-05-08 19:31 49.89238 -6.57767 39020 ft 478 kts 101°
2026-05-08 19:31 49.88394 -6.47533 39020 ft 478 kts 101°
2026-05-08 19:32 49.87542 -6.37310 39020 ft 478 kts 101°
2026-05-08 19:32 49.86680 -6.27083 39020 ft 479 kts 101°
2026-05-08 19:33 49.85809 -6.16859 39021 ft 479 kts 101°
2026-05-08 19:33 49.84929 -6.06632 39030 ft 479 kts 101°
2026-05-08 19:34 49.84046 -5.96481 39019 ft 479 kts 101°
2026-05-08 19:34 49.83148 -5.86271 39016 ft 479 kts 101°
2026-05-08 19:35 49.82241 -5.76059 39017 ft 478 kts 101°
2026-05-08 19:35 49.81327 -5.65868 39015 ft 477 kts 101°
2026-05-08 19:36 49.80406 -5.55702 39018 ft 477 kts 101°
2026-05-08 19:36 49.79475 -5.45540 39022 ft 477 kts 101°
2026-05-08 19:37 49.78534 -5.35371 39018 ft 478 kts 101°
2026-05-08 19:37 49.77584 -5.25193 39024 ft 478 kts 101°
2026-05-08 19:38 49.76624 -5.15010 39024 ft 479 kts 101°
2026-05-08 19:38 49.75654 -5.04820 39019 ft 478 kts 101°
2026-05-08 19:39 49.74677 -4.94648 39019 ft 478 kts 101°
2026-05-08 19:39 49.73690 -4.84480 39019 ft 478 kts 101°
2026-05-08 19:40 49.72702 -4.74389 39022 ft 478 kts 102°
2026-05-08 19:40 49.71697 -4.64229 39022 ft 478 kts 102°
2026-05-08 19:41 49.70685 -4.54083 39022 ft 478 kts 102°
2026-05-08 19:41 49.69661 -4.43918 39015 ft 480 kts 102°
2026-05-08 19:42 49.68625 -4.33722 39018 ft 481 kts 102°
2026-05-08 19:42 49.67579 -4.23511 39023 ft 481 kts 102°
2026-05-08 19:43 49.66525 -4.13319 39025 ft 480 kts 102°
2026-05-08 19:43 49.65467 -4.03174 39012 ft 478 kts 102°
2026-05-08 19:44 49.64528 -3.92984 39027 ft 481 kts 98°
2026-05-08 19:44 49.63964 -3.82690 39026 ft 482 kts 97°
2026-05-08 19:45 49.63421 -3.72398 39019 ft 482 kts 98°
2026-05-08 19:45 49.62810 -3.62113 39024 ft 481 kts 98°
2026-05-08 19:46 49.62156 -3.51828 39023 ft 483 kts 98°
2026-05-08 19:46 49.61146 -3.36348 39024 ft 484 kts 98°
2026-05-08 19:47 49.60464 -3.26015 39028 ft 484 kts 98°
2026-05-08 19:47 49.59773 -3.15688 39029 ft 484 kts 98°
2026-05-08 19:48 49.59072 -3.05360 39025 ft 485 kts 98°
2026-05-08 19:48 49.58363 -2.95027 39029 ft 485 kts 98°
2026-05-08 19:49 49.57648 -2.84761 39036 ft 485 kts 98°
2026-05-08 19:49 49.56919 -2.74429 39027 ft 485 kts 98°
2026-05-08 19:50 49.56181 -2.64106 39022 ft 486 kts 98°
2026-05-08 19:50 49.55431 -2.53740 39022 ft 487 kts 98°
2026-05-08 19:51 49.54671 -2.43366 39023 ft 488 kts 98°
2026-05-08 19:51 49.53902 -2.32992 39024 ft 488 kts 98°
2026-05-08 19:52 49.53123 -2.22618 39009 ft 488 kts 98°
2026-05-08 19:52 49.52332 -2.12205 39029 ft 489 kts 97°
2026-05-08 19:53 49.51628 -2.01810 39029 ft 490 kts 96°
2026-05-08 19:53 49.50896 -1.91387 39031 ft 490 kts 97°
2026-05-08 19:54 49.50102 -1.81002 39040 ft 487 kts 97°
2026-05-08 19:54 49.49275 -1.70655 39048 ft 489 kts 97°
2026-05-08 19:55 49.48437 -1.60271 39045 ft 490 kts 97°
2026-05-08 19:55 49.47587 -1.49882 39046 ft 490 kts 97°
2026-05-08 19:56 49.46733 -1.39568 39045 ft 490 kts 97°
2026-05-08 19:56 49.45865 -1.29178 39047 ft 491 kts 97°
2026-05-08 19:57 49.44985 -1.18746 39046 ft 493 kts 97°
2026-05-08 19:57 49.44095 -1.08298 39046 ft 493 kts 97°
2026-05-08 19:58 49.43194 -0.97849 39043 ft 493 kts 97°
2026-05-08 19:58 49.42284 -0.87404 39033 ft 493 kts 97°
2026-05-08 19:59 49.41363 -0.76957 39039 ft 494 kts 97°
2026-05-08 19:59 49.40903 -0.71760 38725 ft 489 kts 97°
2026-05-08 19:59 49.40442 -0.66579 37768 ft 492 kts 97°
2026-05-08 20:00 49.39974 -0.61351 36731 ft 496 kts 97°
2026-05-08 20:00 49.39503 -0.56091 35778 ft 499 kts 97°
2026-05-08 20:00 49.39028 -0.50795 34826 ft 503 kts 97°
2026-05-08 20:00 49.38545 -0.45470 33922 ft 505 kts 97°
2026-05-08 20:01 49.38057 -0.40134 32996 ft 505 kts 98°
2026-05-08 20:01 49.37564 -0.34801 32110 ft 504 kts 98°
2026-05-08 20:01 49.37068 -0.29484 31242 ft 504 kts 98°
2026-05-08 20:01 49.36568 -0.24162 30526 ft 504 kts 98°
2026-05-08 20:02 49.36150 -0.18808 30160 ft 507 kts 95°
2026-05-08 20:02 49.35810 -0.13421 30047 ft 509 kts 95°
2026-05-08 20:02 49.35136 -0.02625 30051 ft 508 kts 95°
2026-05-08 20:03 49.34446 0.08171 30048 ft 509 kts 95°
2026-05-08 20:03 49.33742 0.18992 30047 ft 510 kts 95°
2026-05-08 20:04 49.33388 0.24360 30044 ft 498 kts 95°
2026-05-08 20:04 49.33044 0.29546 30044 ft 479 kts 95°
2026-05-08 20:04 49.32714 0.34525 30045 ft 461 kts 95°
2026-05-08 20:04 49.32394 0.39327 30049 ft 448 kts 95°
2026-05-08 20:05 49.31775 0.48666 29210 ft 428 kts 93°
2026-05-08 20:05 49.31634 0.53208 27808 ft 427 kts 89°
2026-05-08 20:05 49.31583 0.57761 26500 ft 426 kts 89°
2026-05-08 20:06 49.31542 0.62276 25409 ft 420 kts 89°
2026-05-08 20:06 49.31497 0.66647 24407 ft 412 kts 89°
2026-05-08 20:06 49.31449 0.71057 23327 ft 406 kts 89°
2026-05-08 20:06 49.31399 0.75350 22110 ft 400 kts 89°
2026-05-08 20:07 49.31348 0.79580 20951 ft 394 kts 90°
2026-05-08 20:07 49.31295 0.83750 19814 ft 389 kts 90°
2026-05-08 20:07 49.31242 0.87810 18760 ft 384 kts 90°
2026-05-08 20:07 49.31187 0.91905 17792 ft 387 kts 90°
2026-05-08 20:08 49.31130 0.95983 17412 ft 378 kts 90°
2026-05-08 20:08 49.31073 1.00018 16948 ft 371 kts 90°
2026-05-08 20:08 49.31017 1.03952 16410 ft 368 kts 90°
2026-05-08 20:08 49.30960 1.07840 15948 ft 362 kts 90°
2026-05-08 20:09 49.30902 1.11673 15514 ft 357 kts 90°
2026-05-08 20:09 49.30844 1.15399 15062 ft 353 kts 90°
2026-05-08 20:09 49.30785 1.19133 14638 ft 349 kts 90°
2026-05-08 20:09 49.30725 1.22844 14204 ft 347 kts 90°
2026-05-08 20:10 49.30665 1.26516 13764 ft 344 kts 90°
2026-05-08 20:10 49.30603 1.30167 13313 ft 340 kts 90°
2026-05-08 20:10 49.30540 1.33768 12881 ft 336 kts 90°
2026-05-08 20:10 49.30478 1.37327 12473 ft 332 kts 90°
2026-05-08 20:11 49.30421 1.40815 12250 ft 321 kts 89°
2026-05-08 20:11 49.30375 1.44153 12110 ft 307 kts 89°
2026-05-08 20:11 49.30287 1.47357 11980 ft 299 kts 94°
2026-05-08 20:11 49.29673 1.50421 11786 ft 304 kts 117°
2026-05-08 20:12 49.28367 1.52933 11414 ft 302 kts 139°
2026-05-08 20:12 49.26636 1.54725 11046 ft 300 kts 149°
2026-05-08 20:12 49.24821 1.56264 10680 ft 297 kts 150°
2026-05-08 20:12 49.23003 1.57754 10320 ft 295 kts 150°
2026-05-08 20:13 49.21195 1.59219 9967 ft 294 kts 150°
2026-05-08 20:13 49.19404 1.60658 9547 ft 284 kts 151°
2026-05-08 20:13 49.17703 1.62017 9153 ft 268 kts 151°
2026-05-08 20:13 49.16084 1.63309 8747 ft 260 kts 150°
2026-05-08 20:14 49.14486 1.64588 8368 ft 259 kts 150°
2026-05-08 20:14 49.12895 1.65860 7978 ft 257 kts 150°
2026-05-08 20:14 49.11330 1.67113 7583 ft 249 kts 151°
2026-05-08 20:14 49.09794 1.68342 7211 ft 249 kts 150°
2026-05-08 20:15 49.08278 1.69556 7024 ft 243 kts 150°
2026-05-08 20:15 49.06784 1.70753 7002 ft 243 kts 151°
2026-05-08 20:15 49.05295 1.71973 6996 ft 243 kts 151°
2026-05-08 20:15 49.03805 1.73210 6992 ft 244 kts 150°
2026-05-08 20:16 49.02318 1.74447 6999 ft 244 kts 150°
2026-05-08 20:16 49.00829 1.75686 6995 ft 244 kts 151°
2026-05-08 20:16 48.99349 1.76929 7002 ft 242 kts 150°
2026-05-08 20:16 48.98079 1.78575 7004 ft 242 kts 123°
2026-05-08 20:17 48.97313 1.80844 6992 ft 243 kts 112°
2026-05-08 20:17 48.96681 1.83241 6967 ft 244 kts 111°
2026-05-08 20:17 48.96070 1.85617 6683 ft 241 kts 110°
2026-05-08 20:17 48.95463 1.87993 6306 ft 241 kts 110°
2026-05-08 20:18 48.95063 1.89561 6101 ft 239 kts 111°
2026-05-08 20:18 48.94461 1.91926 5790 ft 241 kts 110°
2026-05-08 20:18 48.93853 1.94277 5532 ft 236 kts 111°
2026-05-08 20:18 48.93291 1.96601 5251 ft 233 kts 103°
2026-05-08 20:19 48.93264 1.99022 5039 ft 230 kts 77°
2026-05-08 20:19 48.93761 2.01336 5001 ft 231 kts 67°
2026-05-08 20:19 48.94391 2.03594 5001 ft 233 kts 66°
2026-05-08 20:19 48.95037 2.05852 5005 ft 233 kts 66°
2026-05-08 20:20 48.95674 2.08119 5003 ft 233 kts 67°
2026-05-08 20:20 48.96271 2.10408 5003 ft 233 kts 70°
2026-05-08 20:20 48.96777 2.12754 5002 ft 233 kts 74°
2026-05-08 20:20 48.97071 2.15171 5003 ft 232 kts 83°
2026-05-08 20:21 48.97206 2.17541 4998 ft 217 kts 85°
2026-05-08 20:21 48.97324 2.19738 4992 ft 200 kts 84°
2026-05-08 20:21 48.97439 2.21794 4907 ft 191 kts 84°
2026-05-08 20:21 48.97544 2.23784 4715 ft 187 kts 84°
2026-05-08 20:22 48.97648 2.25752 4406 ft 186 kts 84°
2026-05-08 20:22 48.97754 2.27713 4120 ft 185 kts 84°
2026-05-08 20:22 48.97859 2.29660 3843 ft 184 kts 84°
2026-05-08 20:22 48.97962 2.31593 3586 ft 181 kts 84°
2026-05-08 20:23 48.98063 2.33466 3351 ft 175 kts 84°
2026-05-08 20:23 48.98160 2.35282 3105 ft 169 kts 83°
2026-05-08 20:23 48.98253 2.37036 2883 ft 163 kts 83°
2026-05-08 20:23 48.98343 2.38721 2667 ft 157 kts 83°
2026-05-08 20:24 48.98429 2.40335 2461 ft 149 kts 83°
2026-05-08 20:24 48.98511 2.41875 2267 ft 143 kts 83°
2026-05-08 20:24 48.98594 2.43399 2107 ft 154 kts 83°
2026-05-08 20:24 48.98684 2.45094 1872 ft 162 kts 83°
2026-05-08 20:25 48.98773 2.46765 1645 ft 153 kts 83°
2026-05-08 20:25 48.98855 2.48316 1446 ft 141 kts 83°
2026-05-08 20:25 48.98929 2.49744 1267 ft 130 kts 82°
2026-05-08 20:25 48.98999 2.51095 1091 ft 128 kts 85°
2026-05-08 20:26 48.99070 2.52455 908 ft 129 kts 84°
2026-05-08 20:26 48.99141 2.53822 752 ft 130 kts 84°
2026-05-08 20:26 48.99212 2.55193 581 ft 132 kts 83°
2026-05-08 20:26 48.99291 2.56561 416 ft 131 kts 83°
2026-05-08 20:27 48.99377 2.57917 363 ft 119 kts 86°
2026-05-08 20:27 48.99421 2.58809 362 ft 43 kts 85°
2026-05-08 20:27 48.99451 2.59168 360 ft 32 kts 72°
2026-05-08 20:27 48.99516 2.59410 366 ft 24 kts 67°
2026-05-08 20:28 48.99585 2.59641 369 ft 25 kts 65°
2026-05-08 20:28 48.99640 2.59862 364 ft 15 kts 76°
2026-05-08 20:28 48.99659 2.59927 368 ft 0 kts 55°
2026-05-08 20:29 48.99675 2.59945 367 ft 13 kts 31°
2026-05-08 20:29 48.99804 2.59960 367 ft 21 kts 358°
2026-05-08 20:30 48.99913 2.60025 369 ft 8 kts 40°
2026-05-08 20:30 48.99915 2.60027 369 ft 0 kts 40°
2026-05-08 20:30 48.99923 2.60037 368 ft 5 kts 36°
2026-05-08 20:30 48.99964 2.60057 366 ft 7 kts
2026-05-08 20:31 49.00021 2.60022 368 ft 11 kts 335°
2026-05-08 20:31 49.00083 2.59942 367 ft 13 kts 288°
2026-05-08 20:31 49.00089 2.59792 367 ft 16 kts 263°
2026-05-08 20:31 49.00085 2.59745 366 ft 0 kts 264°
2026-05-08 20:32 49.00085 2.59744 366 ft 0 kts 264°
2026-05-08 20:34 49.00084 2.59730 365 ft 8 kts 264°
2026-05-08 20:34 49.00075 2.59582 368 ft 17 kts 265°
2026-05-08 20:34 49.00054 2.59166 362 ft 22 kts 265°
2026-05-08 20:35 49.00043 2.58942 360 ft 21 kts 265°
2026-05-08 20:35 49.00033 2.58735 360 ft 20 kts 265°
2026-05-08 20:35 49.00021 2.58506 362 ft 23 kts 265°
2026-05-08 20:35 49.00009 2.58249 364 ft 26 kts 265°
2026-05-08 20:36 48.99996 2.58024 360 ft 14 kts 265°
2026-05-08 20:36 48.99993 2.57964 367 ft 0 kts 265°
2026-05-08 20:37 48.99993 2.57963 367 ft 0 kts 265°
2026-05-08 20:37 48.99988 2.57875 368 ft 12 kts 265°
2026-05-08 20:38 49.00015 2.57757 368 ft 12 kts 334°
2026-05-08 20:38 49.00060 2.57814 369 ft 10 kts 72°
2026-05-08 20:38 49.00072 2.57933 367 ft 12 kts 84°
2026-05-08 20:38 49.00087 2.58006 364 ft 5 kts 40°
2026-05-08 20:39 49.00125 2.58019 365 ft 4 kts
2026-05-08 20:39 49.00148 2.58017 362 ft 2 kts 357°
2026-05-08 20:39 49.00156 2.58016 363 ft 0 kts 356°